| time (UTC) | temp F | wind direction | speed MPH | gust MPH | rain 1hr in | rain 24hr in | rain mn in | humidity % | barometer mb |
| 20260508003400 | 48 | 164 | 2.0 | 7.0 | 0.00 | 0.00 | 0.00 | 85 | 1019.4 |
| 20260508002459 | 49 | 161 | 3.0 | 8.0 | 0.00 | 0.00 | 0.00 | 84 | 1019.0 |
| 20260508001559 | 48 | 163 | 4.0 | 6.0 | 0.00 | 0.00 | 0.00 | 86 | 1019.0 |
| 20260508000657 | 47 | 180 | 2.0 | 4.0 | 0.00 | 0.00 | 0.00 | 87 | 1019.2 |
| 20260507235759 | 47 | 179 | 2.0 | 7.0 | 0.00 | 0.00 | 0.00 | 87 | 1019.2 |
| 20260507234859 | 47 | 182 | 1.0 | 7.0 | 0.00 | 0.00 | 0.00 | 87 | 1019.1 |
| 20260507233957 | 48 | 172 | 2.0 | 8.0 | 0.00 | 0.00 | 0.00 | 87 | 1019.1 |
| 20260507233059 | 48 | 169 | 4.0 | 8.0 | 0.00 | 0.00 | 0.00 | 87 | 1019.2 |
| 20260507232159 | 47 | 176 | 2.0 | 7.0 | 0.00 | 0.00 | 0.00 | 89 | 1019.0 |
| 20260507231259 | 47 | 157 | 1.0 | 2.0 | 0.00 | 0.00 | 0.00 | 90 | 1019.1 |
| 20260507230359 | 46 | 157 | 0.0 | 2.0 | 0.00 | 0.00 | 0.00 | 91 | 1019.3 |
| 20260507225457 | 45 | 160 | 0.0 | 2.0 | 0.00 | 0.00 | 0.00 | 90 | 1019.0 |
| 20260507224557 | 46 | 180 | 0.0 | 2.0 | 0.00 | 0.00 | 0.00 | 89 | 1019.3 |
| 20260507223657 | 47 | 0 | 0.0 | 0.0 | 0.00 | 0.00 | 0.00 | 88 | 1019.4 |
| 20260507223008 | 47 | 180 | 0.0 | 2.0 | 0.00 | 0.00 | 0.00 | 87 | 1019.2 |
| 20260507221858 | 48 | 187 | 1.0 | 7.0 | 0.00 | 0.00 | 0.00 | 87 | 1019.2 |
| 20260507220957 | 48 | 185 | 1.0 | 6.0 | 0.00 | 0.00 | 0.00 | 86 | 1019.0 |
| 20260507220059 | 49 | 163 | 3.0 | 7.0 | 0.00 | 0.00 | 0.00 | 85 | 1019.1 |
| 20260507215407 | 49 | 163 | 3.0 | 7.0 | 0.00 | 0.00 | 0.00 | 84 | 1019.1 |
| 20260507214259 | 50 | 154 | 2.0 | 8.0 | 0.00 | 0.00 | 0.00 | 83 | 1019.2 |
| 20260507213357 | 50 | 149 | 3.0 | 8.0 | 0.00 | 0.00 | 0.00 | 85 | 1019.2 |
| 20260507212710 | 49 | 158 | 2.0 | 4.0 | 0.00 | 0.00 | 0.00 | 87 | 1019.2 |
| 20260507211559 | 49 | 138 | 2.0 | 6.0 | 0.00 | 0.00 | 0.00 | 89 | 1019.4 |
| 20260507210657 | 49 | 137 | 2.0 | 4.0 | 0.00 | 0.00 | 0.00 | 89 | 1019.3 |
| 20260507210012 | 48 | 131 | 2.0 | 4.0 | 0.00 | 0.00 | 0.00 | 90 | 1019.3 |
| 20260507204859 | 49 | 131 | 2.0 | 7.0 | 0.00 | 0.00 | 0.00 | 90 | 1019.1 |
| 20260507203959 | 49 | 127 | 2.0 | 4.0 | 0.00 | 0.00 | 0.00 | 89 | 1019.0 |
| 20260507203057 | 49 | 131 | 2.0 | 4.0 | 0.00 | 0.00 | 0.00 | 89 | 1019.2 |
| 20260507202157 | 49 | 140 | 2.0 | 4.0 | 0.00 | 0.00 | 0.00 | 89 | 1019.2 |
| 20260507201257 | 48 | 142 | 2.0 | 8.0 | 0.00 | 0.00 | 0.00 | 89 | 1018.9 |
| 20260507200401 | 49 | 130 | 4.0 | 8.0 | 0.00 | 0.00 | 0.00 | 89 | 1019.0 |
| 20260507195708 | 49 | 124 | 4.0 | 9.0 | 0.00 | 0.00 | 0.00 | 89 | 1018.9 |
| 20260507194557 | 49 | 138 | 4.0 | 7.0 | 0.00 | 0.00 | 0.00 | 89 | 1018.9 |
| 20260507193659 | 49 | 137 | 2.0 | 7.0 | 0.00 | 0.00 | 0.00 | 89 | 1019.1 |
| 20260507192758 | 49 | 133 | 4.0 | 7.0 | 0.00 | 0.00 | 0.00 | 89 | 1018.7 |
| 20260507191857 | 49 | 137 | 2.0 | 8.0 | 0.00 | 0.00 | 0.00 | 89 | 1018.8 |
| 20260507190959 | 49 | 136 | 4.0 | 8.0 | 0.00 | 0.00 | 0.00 | 88 | 1019.1 |
| 20260507190059 | 50 | 151 | 4.0 | 6.0 | 0.00 | 0.00 | 0.00 | 88 | 1019.0 |
| 20260507185159 | 50 | 143 | 4.0 | 9.0 | 0.00 | 0.00 | 0.00 | 88 | 1018.9 |
| 20260507184259 | 49 | 149 | 5.0 | 8.0 | 0.00 | 0.00 | 0.00 | 88 | 1018.9 |
| 20260507183609 | 49 | 144 | 2.0 | 8.0 | 0.00 | 0.00 | 0.00 | 87 | 1018.9 |
| 20260507182713 | 50 | 136 | 3.0 | 11.0 | 0.00 | 0.00 | 0.00 | 87 | 1019.2 |
| 20260507181559 | 49 | 141 | 3.0 | 7.0 | 0.00 | 0.00 | 0.00 | 87 | 1018.8 |
| 20260507180657 | 49 | 139 | 2.0 | 7.0 | 0.00 | 0.00 | 0.00 | 87 | 1019.1 |
| 20260507175757 | 49 | 124 | 2.0 | 6.0 | 0.00 | 0.00 | 0.00 | 87 | 1019.0 |
| 20260507174857 | 49 | 126 | 2.0 | 7.0 | 0.00 | 0.00 | 0.00 | 88 | 1019.0 |
| 20260507173958 | 49 | 135 | 2.0 | 11.0 | 0.00 | 0.00 | 0.00 | 87 | 1019.0 |
| 20260507173057 | 49 | 130 | 3.0 | 6.0 | 0.00 | 0.00 | 0.00 | 85 | 1019.2 |
| 20260507172157 | 49 | 138 | 3.0 | 6.0 | 0.00 | 0.00 | 0.00 | 85 | 1019.2 |
| 20260507171259 | 49 | 128 | 3.0 | 6.0 | 0.00 | 0.00 | 0.00 | 85 | 1019.1 |
| 20260507170359 | 49 | 143 | 3.0 | 6.0 | 0.00 | 0.00 | 0.00 | 86 | 1019.2 |
| 20260507165459 | 50 | 139 | 3.0 | 7.0 | 0.00 | 0.00 | 0.00 | 86 | 1019.5 |
| 20260507164807 | 50 | 151 | 3.0 | 7.0 | 0.00 | 0.00 | 0.00 | 85 | 1019.4 |
| 20260507163657 | 50 | 155 | 3.0 | 8.0 | 0.00 | 0.00 | 0.00 | 83 | 1019.6 |
| 20260507162759 | 51 | 132 | 3.0 | 8.0 | 0.00 | 0.00 | 0.00 | 82 | 1019.3 |
| 20260507161857 | 51 | 127 | 6.0 | 11.0 | 0.00 | 0.00 | 0.00 | 83 | 1019.3 |
| 20260507160957 | 51 | 135 | 6.0 | 11.0 | 0.00 | 0.00 | 0.00 | 82 | 1019.1 |
| 20260507160059 | 51 | 145 | 2.0 | 9.0 | 0.00 | 0.00 | 0.00 | 82 | 1019.0 |
| 20260507155159 | 51 | 141 | 4.0 | 11.0 | 0.00 | 0.00 | 0.00 | 81 | 1019.2 |
| 20260507154509 | 51 | 116 | 4.0 | 8.0 | 0.00 | 0.00 | 0.00 | 80 | 1019.5 |
| 20260507153357 | 52 | 126 | 4.0 | 8.0 | 0.00 | 0.00 | 0.00 | 79 | 1019.3 |
| 20260507152457 | 53 | 133 | 4.0 | 8.0 | 0.00 | 0.00 | 0.00 | 78 | 1019.0 |
| 20260507151557 | 54 | 141 | 4.0 | 11.0 | 0.00 | 0.00 | 0.00 | 77 | 1019.1 |
| 20260507150657 | 54 | 127 | 4.0 | 11.0 | 0.00 | 0.00 | 0.00 | 80 | 1019.5 |
| 20260507145757 | 53 | 146 | 8.0 | 11.0 | 0.00 | 0.00 | 0.00 | 80 | 1019.2 |
| 20260507144859 | 53 | 133 | 8.0 | 11.0 | 0.00 | 0.00 | 0.00 | 80 | 1019.7 |
| 20260507143959 | 53 | 133 | 3.0 | 11.0 | 0.00 | 0.00 | 0.00 | 79 | 1019.7 |
| 20260507143307 | 54 | 128 | 4.0 | 21.0 | 0.00 | 0.00 | 0.00 | 78 | 1019.4 |
| 20260507142159 | 53 | 136 | 11.0 | 21.0 | 0.00 | 0.00 | 0.00 | 76 | 1019.6 |
| 20260507141257 | 53 | 128 | 4.0 | 15.0 | 0.00 | 0.00 | 0.00 | 79 | 1019.6 |
| 20260507140359 | 51 | 134 | 10.0 | 16.0 | 0.00 | 0.00 | 0.00 | 82 | 1019.6 |
| 20260507135457 | 51 | 139 | 6.0 | 16.0 | 0.00 | 0.00 | 0.00 | 82 | 1019.8 |
| 20260507134559 | 50 | 130 | 5.0 | 11.0 | 0.00 | 0.00 | 0.00 | 82 | 1019.8 |
| 20260507133659 | 50 | 153 | 2.0 | 9.0 | 0.00 | 0.00 | 0.00 | 80 | 1019.9 |
| 20260507132757 | 50 | 137 | 4.0 | 8.0 | 0.00 | 0.00 | 0.00 | 80 | 1019.9 |
| 20260507131857 | 50 | 148 | 4.0 | 13.0 | 0.00 | 0.00 | 0.00 | 80 | 1020.0 |
| 20260507130957 | 50 | 141 | 7.0 | 13.0 | 0.00 | 0.00 | 0.00 | 79 | 1020.2 |
| 20260507130059 | 51 | 145 | 3.0 | 11.0 | 0.00 | 0.00 | 0.00 | 78 | 1020.3 |
| 20260507125408 | 51 | 133 | 7.0 | 11.0 | 0.00 | 0.00 | 0.00 | 77 | 1020.2 |
| 20260507124257 | 53 | 168 | 4.0 | 11.0 | 0.00 | 0.00 | 0.00 | 75 | 1020.0 |
| 20260507123402 | 55 | 167 | 8.0 | 11.0 | 0.00 | 0.00 | 0.00 | 70 | 1019.9 |
| 20260507122457 | 56 | 161 | 5.0 | 9.0 | 0.00 | 0.00 | 0.00 | 73 | 1020.2 |
| 20260507121559 | 55 | 146 | 6.0 | 11.0 | 0.00 | 0.00 | 0.00 | 72 | 1020.1 |
| 20260507120657 | 53 | 135 | 8.0 | 11.0 | 0.00 | 0.00 | 0.00 | 70 | 1020.2 |
| 20260507115759 | 54 | 125 | 4.0 | 13.0 | 0.00 | 0.00 | 0.00 | 72 | 1020.0 |
| 20260507114859 | 54 | 130 | 8.0 | 13.0 | 0.00 | 0.00 | 0.00 | 70 | 1020.0 |
| 20260507113957 | 54 | 158 | 4.0 | 15.0 | 0.00 | 0.00 | 0.00 | 71 | 1020.2 |
| 20260507113059 | 54 | 157 | 3.0 | 9.0 | 0.00 | 0.00 | 0.00 | 71 | 1020.0 |
| 20260507112157 | 53 | 137 | 3.0 | 9.0 | 0.00 | 0.00 | 0.00 | 70 | 1020.1 |
| 20260507111257 | 55 | 126 | 2.0 | 8.0 | 0.00 | 0.00 | 0.00 | 69 | 1019.8 |
| 20260507110359 | 53 | 132 | 1.0 | 13.0 | 0.00 | 0.00 | 0.00 | 71 | 1020.1 |
| 20260507105709 | 52 | 122 | 2.0 | 13.0 | 0.00 | 0.00 | 0.00 | 70 | 1020.3 |
| 20260507104557 | 55 | 116 | 2.0 | 8.0 | 0.00 | 0.00 | 0.00 | 69 | 1020.3 |
| 20260507103657 | 53 | 122 | 3.0 | 9.0 | 0.00 | 0.00 | 0.00 | 70 | 1020.4 |
| 20260507102757 | 53 | 127 | 5.0 | 11.0 | 0.00 | 0.00 | 0.00 | 72 | 1020.6 |
| 20260507102113 | 53 | 134 | 5.0 | 11.0 | 0.00 | 0.00 | 0.00 | 70 | 1020.4 |
| 20260507101210 | 52 | 135 | 5.0 | 9.0 | 0.00 | 0.00 | 0.00 | 72 | 1020.6 |
| 20260507100057 | 53 | 125 | 4.0 | 11.0 | 0.00 | 0.00 | 0.00 | 72 | 1020.4 |
| 20260507095159 | 52 | 147 | 4.0 | 8.0 | 0.00 | 0.00 | 0.00 | 72 | 1020.6 |
| 20260507094259 | 51 | 150 | 4.0 | 7.0 | 0.00 | 0.00 | 0.00 | 73 | 1020.4 |
| 20260507093359 | 51 | 131 | 4.0 | 11.0 | 0.00 | 0.00 | 0.00 | 75 | 1020.4 |
| 20260507092459 | 52 | 125 | 5.0 | 9.0 | 0.00 | 0.00 | 0.00 | 74 | 1020.7 |
| 20260507091557 | 53 | 129 | 5.0 | 13.0 | 0.00 | 0.00 | 0.00 | 73 | 1020.7 |
| 20260507090659 | 51 | 108 | 8.0 | 13.0 | 0.00 | 0.00 | 0.00 | 73 | 1020.7 |
| 20260507085759 | 51 | 135 | 5.0 | 14.0 | 0.00 | 0.00 | 0.00 | 74 | 1020.8 |
| 20260507084859 | 51 | 147 | 8.0 | 11.0 | 0.00 | 0.00 | 0.00 | 74 | 1020.8 |
| 20260507084209 | 51 | 144 | 6.0 | 9.0 | 0.00 | 0.00 | 0.00 | 74 | 1020.7 |
| 20260507083057 | 50 | 134 | 4.0 | 9.0 | 0.00 | 0.00 | 0.00 | 76 | 1020.7 |
| 20260507082159 | 49 | 121 | 4.0 | 11.0 | 0.00 | 0.00 | 0.00 | 76 | 1020.8 |
| 20260507081259 | 49 | 131 | 5.0 | 11.0 | 0.00 | 0.00 | 0.00 | 76 | 1020.8 |
| 20260507080608 | 50 | 143 | 4.0 | 11.0 | 0.00 | 0.00 | 0.00 | 76 | 1020.8 |
| 20260507075459 | 51 | 149 | 4.0 | 13.0 | 0.00 | 0.00 | 0.00 | 75 | 1021.0 |
| 20260507074559 | 49 | 147 | 6.0 | 11.0 | 0.00 | 0.00 | 0.00 | 74 | 1020.6 |
| 20260507073657 | 51 | 154 | 5.0 | 11.0 | 0.00 | 0.00 | 0.00 | 72 | 1020.7 |
| 20260507072759 | 51 | 146 | 6.0 | 9.0 | 0.00 | 0.00 | 0.00 | 74 | 1020.8 |
| 20260507071859 | 51 | 133 | 6.0 | 9.0 | 0.00 | 0.00 | 0.00 | 75 | 1020.8 |
| 20260507070957 | 51 | 149 | 4.0 | 8.0 | 0.00 | 0.00 | 0.00 | 76 | 1020.7 |
| 20260507070057 | 49 | 136 | 4.0 | 9.0 | 0.00 | 0.00 | 0.00 | 78 | 1021.0 |
| 20260507065157 | 48 | 142 | 4.0 | 7.0 | 0.00 | 0.00 | 0.00 | 80 | 1020.9 |
| 20260507064259 | 47 | 136 | 4.0 | 9.0 | 0.00 | 0.00 | 0.00 | 79 | 1021.2 |
| 20260507063357 | 47 | 136 | 2.0 | 6.0 | 0.00 | 0.00 | 0.00 | 81 | 1021.2 |
| 20260507062457 | 47 | 131 | 3.0 | 8.0 | 0.00 | 0.00 | 0.00 | 82 | 1021.0 |
| 20260507061557 | 46 | 132 | 4.0 | 7.0 | 0.00 | 0.00 | 0.00 | 83 | 1021.1 |
| 20260507060657 | 45 | 125 | 2.0 | 6.0 | 0.00 | 0.00 | 0.00 | 83 | 1021.2 |
| 20260507055800 | 46 | 135 | 1.0 | 7.0 | 0.00 | 0.00 | 0.00 | 83 | 1021.1 |
| 20260507054858 | 45 | 122 | 3.0 | 7.0 | 0.00 | 0.00 | 0.00 | 83 | 1021.0 |
| 20260507053957 | 44 | 125 | 2.0 | 4.0 | 0.00 | 0.00 | 0.00 | 84 | 1021.1 |
| 20260507053059 | 44 | 132 | 2.0 | 4.0 | 0.00 | 0.00 | 0.00 | 83 | 1021.1 |
| 20260507052157 | 44 | 135 | 1.0 | 4.0 | 0.00 | 0.00 | 0.00 | 82 | 1021.2 |
| 20260507051508 | 44 | 135 | 1.0 | 4.0 | 0.00 | 0.00 | 0.00 | 83 | 1021.3 |
| 20260507050359 | 43 | 0 | 0.0 | 0.0 | 0.00 | 0.00 | 0.00 | 84 | 1021.2 |
| 20260507045459 | 43 | 112 | 0.0 | 4.0 | 0.00 | 0.00 | 0.00 | 84 | 1021.4 |
| 20260507044557 | 42 | 112 | 0.0 | 2.0 | 0.00 | 0.00 | 0.00 | 85 | 1021.2 |
| 20260507043659 | 41 | 112 | 0.0 | 2.0 | 0.00 | 0.00 | 0.00 | 85 | 1021.2 |
| 20260507042757 | 42 | 112 | 0.0 | 2.0 | 0.00 | 0.00 | 0.00 | 83 | 1021.4 |
| 20260507041859 | 42 | 112 | 2.0 | 2.0 | 0.00 | 0.00 | 0.00 | 83 | 1021.4 |
| 20260507041209 | 43 | 112 | 0.0 | 4.0 | 0.00 | 0.00 | 0.00 | 82 | 1021.6 |
| 20260507040059 | 44 | 129 | 1.0 | 4.0 | 0.00 | 0.00 | 0.00 | 81 | 1021.2 |
| 20260507035159 | 44 | 135 | 2.0 | 4.0 | 0.00 | 0.00 | 0.00 | 81 | 1021.4 |
| 20260507034259 | 44 | 134 | 1.0 | 4.0 | 0.00 | 0.00 | 0.00 | 81 | 1021.5 |
| 20260507033608 | 44 | 116 | 2.0 | 4.0 | 0.00 | 0.00 | 0.00 | 81 | 1021.4 |
| 20260507032711 | 44 | 118 | 2.0 | 6.0 | 0.00 | 0.00 | 0.00 | 81 | 1021.4 |
| 20260507031559 | 44 | 135 | 4.0 | 7.0 | 0.00 | 0.00 | 0.00 | 81 | 1021.5 |
| 20260507030700 | 44 | 126 | 2.0 | 4.0 | 0.00 | 0.00 | 0.00 | 81 | 1021.5 |
| 20260507030008 | 44 | 92 | 2.0 | 4.0 | 0.00 | 0.00 | 0.00 | 81 | 1021.6 |
| 20260507024859 | 44 | 22 | 0.0 | 4.0 | 0.00 | 0.00 | 0.00 | 80 | 1021.5 |
| 20260507023957 | 44 | 22 | 1.0 | 4.0 | 0.00 | 0.00 | 0.00 | 80 | 1021.6 |
| 20260507023057 | 44 | 22 | 0.0 | 2.0 | 0.00 | 0.00 | 0.00 | 79 | 1021.6 |
| 20260507022159 | 44 | 41 | 0.0 | 4.0 | 0.00 | 0.00 | 0.00 | 79 | 1021.8 |
| 20260507021259 | 44 | 105 | 2.0 | 4.0 | 0.00 | 0.00 | 0.00 | 79 | 1021.6 |
| 20260507020357 | 44 | 97 | 0.0 | 4.0 | 0.00 | 0.00 | 0.00 | 79 | 1021.6 |
| 20260507014559 | 44 | 109 | 0.0 | 4.0 | 0.00 | 0.00 | 0.00 | 79 | 1021.5 |
| 20260507013658 | 44 | 130 | 1.0 | 4.0 | 0.00 | 0.00 | 0.00 | 78 | 1021.9 |
| 20260507012759 | 44 | 157 | 2.0 | 4.0 | 0.00 | 0.00 | 0.00 | 79 | 1021.9 |
| 20260507011859 | 44 | 162 | 0.0 | 2.0 | 0.00 | 0.00 | 0.00 | 79 | 1022.0 |
| 20260507010957 | 44 | 180 | 2.0 | 4.0 | 0.00 | 0.00 | 0.00 | 79 | 1022.1 |
| 20260507010307 | 44 | 177 | 1.0 | 4.0 | 0.00 | 0.00 | 0.00 | 79 | 1021.8 |
| 20260507005157 | 44 | 157 | 1.0 | 2.0 | 0.00 | 0.00 | 0.00 | 80 | 1022.2 |
| 20260507004258 | 44 | 161 | 0.0 | 4.0 | 0.00 | 0.00 | 0.00 | 79 | 1022.1 |